Location: El Bakhil
(32.7726°N, 5.5387°W)
Time: 05:20:55
(UTC+00:00)

Envisat - Pass Details

Date: 03 December 2021
Orbit: 764 x 766 km, 98.2° (Epoch: 25 January)

Event Time Altitude Azimuth Distance (km) Brightness Sun altitude
Rises 06:12:05 0° 357° (N) 3,236 6.0 -11.7°
Reaches altitude 10° 06:14:44 10° 344° (NNW) 2,306 5.2 -11.2°
Maximum altitude 06:18:49 25° 291° (WNW) 1,504 3.9 -10.4°
Drops below altitude 10° 06:22:54 10° 237° (WSW) 2,295 5.1 -9.6°
Sets 06:25:32 0° 224° (SW) 3,217 6.0 -9.1°
